Weather in Murovani Kurylivtsi

Ukraine / Vinnytsia Region     48°43′20″N   27°30′54″E
temp.,
°C
wind,
m/s
gust,
m/s
humid.,
%
clouds,
%
prec.,
mm/h
press.,
hPa
HPBL,
m
26 february, fri
fri2623:00+3wnw22850 0.0 103022
02:00+3w22850 0.0 102922
05:00+3w23900 0.0 102725
08:00+3w33860 0.0 102644
11:00+8w49790 0.0 1025313
14:00+11wnw510770 0.0 1023496
17:00+8wnw34830 0.0 102155
20:00+6wnw34890 0.0 102246
27 february, sat
sat2723:00+5wnw23920 0.0 102122
02:00+5wnw4119216 0.0 1021307
05:00+5nw4109095 0.3 1021466
08:00+3nw5128898 0.3 1022722
11:00+4nw71178100 0.0 10221069
14:00+4nw61074100 0.1 10231086
17:00+3nw71190100 0.1 1023842
20:00+3nw61380100 0.3 1024821
28 february, sun
sun2823:00+2nw8149395 0.3 1025812
02:00+1nnw5109794 1.3 1026540
05:00+1nw71296100 1.1 1026702
08:000nnw6118897 1.8 1027784
11:00+2nnw7107475 0.0 10281107
14:00+2nw8107588 0.1 1028968
17:00+2nw61071100 0.0 1027942
20:00+1wnw4137992 0.0 1028557
1 march, mon
mon123:00+1nw6129199 0.0 1027554
02:00+1nw61297100 1.4 1026615
05:00+2nnw51197100 1.3 1026505
08:00+2nne5995100 1.7 1028523
11:00+2n4789100 0.1 1030583
14:00+4n4570100 0.2 1032967
17:00+4nnw477499 0.1 1032671
20:00+3nw388099 0.1 1033351
2 march, tue
tue223:00+2wnw488889 0.0 1034221
02:000wnw499365 0.0 1034226
05:00+1wnw51194100 0.0 1033311
08:00+1wnw5119197 0.0 1032343
11:00+6nw6117181 0.0 1031505
14:00+10wnw7125748 0.0 1029844
17:00+9wnw613602 0.0 1027737
20:00+6nw615741 0.0 1028488